map of UIP home
UIP - Airport
Location
City:  Quimper, Bretagne, France
Name:Pluguffan Airport
Old (Alt.):Quimper Cornouaille Airport
ICAO:LFRQ
IATA:UIP

Details
Type:Airport (Aerodrome, Airfield)
Use:Public/Civil
Latitude:4758'30"N (47.975000)
Longitude:410'04"W (-4.167777)
Elevation:297 ft (91 m)
Variation:1.35W (WMM2015 magnetic declination)
0.14 annual change
Runways:2
Longest:7054 × 148 ft (2150 × 45 m), paved

Time
Time Zone:UTC+1 (DST+2)
Local Time:

Weather
METAR:LFRQ 181800Z AUTO 36010KT 340V040 CAVOK 21/12 Q1017 NOSIG
TAF:LFRQ 181700Z 1818/1918 32012KT CAVOK

Related Locations
Nearby:
Farthest:NZTI: 12140 mi / 19537 km
Taieri, OTA, NZ

Find:

   beyond  
but within

Other Information
Maps:
NOTAMs:
Links:
Sources:

  
  • flag of France
  • flag of Bretagne
  

Sectional Chart

Flight Planning
at skyvector.com

Satellite Image

Google Maps Satellite view

 

Copyright © 2004-2018 Karl L. Swartz. All rights reserved.
The Great Circle Mapper name and logo are trademarks of the Great Circle Mapper.
All other trademarks mentioned herein belong to their respective owners.
Please see credits for attibutions and further copyright information.

  Follow gcmap on Facebook Follow gcmap on Twitter Follow gcmap on Google+ GCmap on LinkedIn

hCard Microformat

Geo Microformat